Date,TemperatureHighF,TemperatureAvgF,TemperatureLowF,DewpointHighF,DewpointAvgF,DewpointLowF,HumidityHigh,HumidityAvg,HumidityLow,PressureMaxIn,PressureMinIn,WindSpeedMaxMPH,WindSpeedAvgMPH,GustSpeedMaxMPH,PrecipitationSumIn
2014-1-1,46.8,37.6,32.8,20.1,7.7,-10.2,55,32,12,30.34,30.13,8,3,17,0.00
2014-1-2,47.3,31.3,18.4,12.6,1.4,-99.9,44,31,17,30.54,30.30,7,2,11,0.00
2014-1-3,48.8,35.0,23.3,9.3,-2.9,-99.9,35,24,10,30.32,29.91,7,2,7,0.00
2014-1-4,36.8,25.9,14.1,15.8,0.8,-99.9,55,39,25,30.27,29.86,13,3,13,0.00
2014-1-5,25.8,17.0,10.0,0.1,-5.8,-11.8,58,37,19,30.61,30.27,10,5,17,0.00
2014-1-6,36.3,21.1,8.1,1.8,-5.6,-16.3,50,31,20,30.78,30.50,7,3,19,0.00
2014-1-7,35.6,25.8,13.6,11.3,4.5,-1.0,54,41,28,30.57,30.20,5,2,8,0.00
2014-1-8,39.8,30.8,22.9,12.7,8.6,2.1,58,40,28,30.27,30.11,8,1,10,0.00
2014-1-9,37.6,28.8,21.0,22.7,17.0,13.0,79,62,39,30.24,30.01,7,2,7,0.01
2014-1-10,34.6,30.5,24.8,18.2,12.0,-99.9,60,50,42,30.28,29.99,10,4,12,0.00
2014-1-11,48.0,35.9,25.0,19.6,16.2,12.8,60,45,29,30.42,30.02,7,3,14,0.00
2014-1-12,36.0,30.1,20.6,19.8,11.5,1.4,68,47,27,30.41,29.89,8,2,13,0.00
2014-1-13,40.1,29.1,20.2,11.5,7.7,2.3,51,41,29,30.54,30.36,12,6,17,0.00
2014-1-14,45.4,34.7,25.8,12.0,6.6,0.1,49,32,19,30.54,30.34,9,4,21,0.00
2014-1-15,48.3,35.3,26.9,13.7,9.4,5.8,44,34,20,30.54,30.25,12,4,19,0.00
2014-1-16,53.1,34.5,18.0,8.4,2.8,-7.7,54,30,8,30.48,30.19,7,2,7,0.00
2014-1-17,50.7,35.3,21.3,12.9,6.9,1.0,47,31,19,30.45,30.17,8,2,12,0.00
2014-1-18,51.1,37.6,26.3,14.5,9.9,4.8,49,33,22,30.49,30.09,5,2,11,0.00
2014-1-19,49.1,35.2,24.1,16.7,11.8,9.6,58,40,24,30.54,30.24,12,2,17,0.00
2014-1-20,52.0,37.7,26.7,13.4,7.0,-4.8,45,29,15,30.52,30.14,10,3,16,0.00
2014-1-21,49.9,32.9,20.8,9.2,1.4,-6.5,46,28,13,30.72,30.29,8,2,11,0.00
2014-1-22,43.8,30.1,21.0,7.4,3.7,-1.5,52,34,17,30.41,30.02,6,2,10,0.00
2014-1-23,41.5,29.5,20.3,11.2,6.7,-99.9,61,42,26,30.63,30.03,7,2,12,0.00
2014-1-24,42.9,26.0,11.9,11.8,3.4,-99.9,69,46,23,30.80,30.52,8,2,11,0.00
2014-1-25,44.1,31.4,19.9,10.5,2.6,-99.9,60,37,17,30.59,30.15,8,2,8,0.00
2014-1-26,47.4,34.3,22.4,13.8,6.1,-7.1,45,31,17,30.27,29.97,11,3,17,0.00
2014-1-27,47.7,35.5,27.3,13.7,8.6,3.5,51,33,22,30.13,29.89,10,2,17,0.00
2014-1-28,43.6,32.7,25.6,9.5,-3.9,-20.6,43,24,6,30.31,29.98,8,4,17,0.00
2014-1-29,47.9,38.1,27.5,17.0,1.0,-99.9,45,23,14,30.22,29.85,9,3,11,0.00
2014-1-30,45.2,40.0,34.9,31.1,21.3,15.7,72,47,35,29.88,29.63,18,4,18,0.00
2014-1-31,40.6,33.4,26.9,28.4,24.4,16.6,80,70,44,29.83,29.63,13,4,30,0.04
2014-2-1,30.4,24.7,14.0,21.6,15.6,3.4,81,68,47,30.25,29.78,8,2,11,0.02
2014-2-2,32.4,20.5,6.1,11.3,4.1,-3.5,67,50,33,30.41,30.11,8,2,11,0.00
2014-2-3,30.7,27.0,22.9,22.0,16.9,9.4,83,66,47,30.08,29.89,5,1,5,0.04
2014-2-4,25.0,21.7,15.2,17.3,13.9,5.5,79,72,61,30.28,29.88,6,2,8,0.10
2014-2-5,30.6,18.7,7.4,9.7,0.3,-99.9,69,53,36,30.47,30.21,4,1,5,0.00
2014-2-6,32.1,24.8,13.5,19.5,9.2,-99.9,67,56,43,30.31,30.03,4,1,7,0.00
2014-2-7,32.9,28.1,22.4,21.4,18.7,14.8,76,68,60,30.27,29.99,5,1,10,0.08
2014-2-8,41.9,33.9,27.3,29.4,20.2,-99.9,82,62,49,30.33,30.15,4,1,6,0.00
2014-2-9,48.0,39.3,32.5,31.3,28.6,26.2,82,66,51,30.23,29.96,6,1,6,0.00
2014-2-10,46.0,38.3,29.7,28.2,23.8,17.5,67,56,39,30.08,29.89,8,2,17,0.00
2014-2-11,41.6,31.0,18.4,16.8,11.7,2.9,73,47,24,30.32,30.10,9,3,14,0.00
2014-2-12,42.6,34.6,21.8,19.4,12.1,2.0,58,40,26,30.39,30.13,10,3,14,0.00
2014-2-13,52.2,43.5,32.7,24.2,18.1,-99.9,57,40,28,30.23,29.97,7,2,17,0.00
2014-2-14,50.8,44.4,38.5,26.4,24.5,22.5,55,46,37,30.16,29.97,9,2,17,0.00
2014-2-15,58.7,45.4,35.3,23.9,14.3,-99.9,57,36,19,30.20,29.98,6,2,7,0.00
2014-2-16,53.8,44.2,36.3,21.6,16.3,10.1,49,34,22,30.12,29.90,13,2,13,0.00
2014-2-17,52.5,40.3,27.2,12.7,6.6,-0.4,43,26,12,30.32,30.05,8,2,17,0.00
2014-2-18,54.2,42.0,30.6,16.3,10.7,7.2,44,29,15,30.18,29.96,6,2,10,0.00
2014-2-19,51.4,38.5,24.8,25.6,10.0,-99.9,69,38,22,29.93,29.59,13,3,18,0.01
2014-2-20,33.5,24.2,16.2,3.7,-2.3,-6.8,47,32,20,30.45,29.91,8,3,21,0.00
2014-2-21,42.2,31.9,23.3,10.0,2.8,-2.8,47,29,19,30.34,30.09,8,3,10,0.00
2014-2-22,47.1,36.8,29.1,16.4,10.9,6.4,49,35,21,30.11,29.92,8,2,14,0.00
2014-2-23,53.6,37.1,25.0,15.4,6.7,-99.9,54,33,15,30.28,30.03,6,2,11,0.00
2014-2-24,53.1,40.4,31.3,13.0,4.7,-99.9,34,25,16,30.24,30.06,8,4,10,0.00
2014-2-25,53.3,41.2,30.4,15.0,7.8,-99.9,40,28,18,30.22,29.94,8,2,16,0.00
2014-2-26,53.9,41.4,32.8,18.2,13.2,7.4,45,32,22,30.08,29.85,8,2,12,0.00
2014-2-27,44.5,35.9,30.9,31.0,24.3,13.5,86,65,36,29.94,29.74,9,2,31,0.21
2014-2-28,42.6,35.1,24.1,28.9,24.3,17.6,81,65,47,30.11,29.87,6,1,13,0.01
2014-3-1,40.5,37.0,33.8,31.6,28.6,23.2,84,72,50,29.95,29.79,9,2,11,0.39
2014-3-2,47.0,36.5,31.5,31.1,23.3,-99.9,83,66,35,30.27,29.83,7,2,10,0.04
2014-3-3,48.3,36.9,28.2,26.2,21.9,18.3,67,55,36,30.28,30.08,9,2,9,0.00
2014-3-4,45.2,35.9,28.2,31.2,21.9,-99.9,82,63,46,30.16,29.95,7,2,16,0.10
2014-3-5,55.6,38.9,24.4,25.5,6.1,-99.9,72,40,15,30.30,30.00,5,2,24,0.00
2014-3-6,52.2,41.8,29.3,22.5,13.6,-99.9,58,36,19,30.27,29.87,7,2,12,0.00
2014-3-7,43.9,37.2,32.5,29.0,22.6,14.8,81,56,37,30.10,29.78,9,3,14,0.06
2014-3-8,46.7,33.7,23.5,22.9,15.6,-99.9,70,53,30,30.49,30.08,7,2,10,0.00
2014-3-9,54.5,39.4,24.2,21.5,14.7,-99.9,66,43,22,30.55,30.23,8,2,10,0.00
2014-3-10,58.3,43.1,30.4,20.6,11.6,-3.2,59,33,9,30.26,29.82,8,2,11,0.00
2014-3-11,45.2,37.3,26.4,15.7,8.5,2.3,51,31,18,30.21,29.71,7,3,10,0.00
2014-3-12,48.2,38.8,21.1,12.0,6.6,3.4,67,28,16,30.44,30.24,9,3,11,0.00
2014-3-13,52.3,42.6,30.0,19.5,11.3,1.9,55,28,21,30.33,29.89,8,3,13,0.00
2014-3-14,52.2,38.9,28.2,25.8,20.0,16.2,66,48,29,30.13,29.91,9,1,13,0.00
2014-3-15,41.8,35.2,29.5,20.3,10.0,-0.3,53,36,22,30.35,29.97,11,4,19,0.00
2014-3-16,60.2,40.4,22.9,16.2,6.0,-0.9,41,25,11,30.47,30.08,9,4,18,0.00
2014-3-17,55.3,45.7,34.1,13.9,3.2,-99.9,38,21,12,30.07,29.43,14,6,18,0.00
2014-3-18,42.1,30.8,21.6,6.5,0.7,-99.9,42,30,21,30.17,29.60,8,4,24,0.00
2014-3-19,47.3,32.2,19.7,6.4,2.8,-1.9,51,31,16,30.41,30.15,10,3,12,0.00
2014-3-20,55.9,36.9,20.0,5.1,-0.1,-5.4,37,22,11,30.40,30.02,7,2,7,0.00
2014-3-21,56.5,41.8,26.9,5.9,2.2,-2.4,32,20,10,30.10,29.86,13,3,14,0.00
2014-3-22,50.5,38.6,29.0,21.3,10.6,4.4,40,32,21,30.18,29.88,7,2,25,0.00
2014-3-23,51.6,38.2,26.0,13.2,7.0,2.2,44,28,17,30.30,30.13,10,2,12,0.00
2014-3-24,58.7,45.3,33.2,7.2,2.0,-4.1,27,17,11,30.22,30.02,8,3,17,0.00
2014-3-25,59.2,44.5,29.0,17.1,5.5,0.0,36,22,10,30.22,29.78,10,2,16,0.00
2014-3-26,51.3,42.5,31.3,27.1,21.4,12.6,74,44,21,29.77,29.44,22,6,28,0.02
2014-3-27,44.5,36.1,29.8,26.4,19.0,8.8,80,53,23,29.98,29.63,12,3,16,0.10
2014-3-28,48.8,39.4,31.5,18.1,11.6,5.9,51,33,18,30.30,29.94,9,3,16,0.00
2014-3-29,55.6,41.2,24.1,17.3,11.0,7.1,52,31,16,30.38,30.03,9,2,12,0.00
2014-3-30,53.3,42.7,32.9,20.2,12.9,3.3,45,30,14,30.03,29.63,25,5,30,0.00
2014-3-31,32.5,29.8,27.8,17.4,12.9,0.5,58,49,29,30.05,29.91,3,1,16,0.00
2014-4-1,54.1,48.8,42.8,9.2,2.9,-3.3,23,15,11,29.81,29.62,22,14,24,0.00
2014-4-2,41.8,35.5,27.8,28.1,19.1,3.6,80,54,21,29.91,29.67,8,3,26,0.08
2014-4-3,42.8,32.1,25.8,21.6,17.9,11.9,79,59,28,30.22,29.80,7,2,12,0.20
2014-4-4,45.4,35.9,23.9,18.7,10.8,4.3,59,37,18,30.23,29.90,9,3,17,0.00
2014-4-5,48.3,41.0,32.5,20.2,12.7,3.5,52,32,18,29.94,29.73,9,3,17,0.00
2014-4-6,48.9,38.8,29.3,24.5,17.2,10.6,70,43,26,30.06,29.86,8,4,14,0.00
2014-4-7,53.6,42.1,31.6,22.4,17.5,10.9,68,40,19,30.26,30.00,9,5,17,0.00
2014-4-8,63.5,49.9,33.8,22.4,14.0,-99.9,50,27,14,30.32,30.07,11,3,12,0.00
2014-4-9,65.5,52.6,39.5,19.8,13.8,10.1,34,22,12,30.18,29.92,12,3,12,0.00
2014-4-10,65.0,52.5,38.8,16.2,7.8,1.0,32,18,9,30.01,29.87,10,3,26,0.00
2014-4-11,64.8,51.9,37.0,15.6,11.0,6.4,35,21,11,30.02,29.81,11,3,0,0.00
2014-4-12,58.4,46.1,41.3,29.8,14.7,8.3,44,28,21,29.82,29.62,11,1,11,0.00
2014-4-13,48.8,40.3,29.0,30.3,22.2,16.1,78,50,28,29.93,29.59,13,3,13,0.14
2014-4-14,50.5,35.0,23.0,14.8,0.8,-99.9,57,34,9,30.35,29.94,11,4,30,0.00
2014-4-15,55.4,40.6,24.5,15.3,-2.3,-99.9,37,22,10,30.30,29.86,7,2,11,0.00
2014-4-16,55.1,44.5,33.7,21.9,13.1,3.1,41,28,18,29.88,29.78,11,3,14,0.00
2014-4-17,60.5,45.0,27.9,19.5,16.0,10.8,59,34,15,30.13,29.85,8,2,17,0.00
2014-4-18,65.6,54.8,39.2,26.5,17.9,-99.9,42,27,18,30.05,29.77,13,5,14,0.00
2014-4-19,62.1,49.8,40.6,38.2,32.5,26.7,81,54,29,30.01,29.86,7,2,14,0.06
2014-4-20,66.8,53.5,40.2,34.3,25.7,-99.9,67,40,20,30.01,29.89,7,2,12,0.00
2014-4-21,69.1,54.0,40.6,27.7,23.1,11.9,53,33,11,30.11,29.93,9,3,21,0.00
2014-4-22,66.4,56.9,45.1,35.4,24.6,17.1,47,30,19,29.97,29.57,13,5,14,0.01
2014-4-23,55.9,48.2,37.3,24.8,11.9,-99.9,42,26,16,29.95,29.54,13,6,13,0.00
2014-4-24,61.2,43.7,27.9,10.9,-1.0,-99.9,36,19,8,30.17,29.94,9,3,17,0.00
2014-4-25,62.4,51.1,33.8,17.9,0.5,-99.9,29,16,6,30.03,29.60,9,4,18,0.00
2014-4-26,52.6,37.5,27.6,32.0,21.8,-99.9,84,63,24,29.69,29.42,14,3,18,0.32
2014-4-27,42.2,34.6,28.8,27.7,21.5,15.0,80,61,36,29.95,29.60,7,3,12,0.18
2014-4-28,43.8,37.2,30.9,21.8,11.6,-1.1,57,37,16,30.22,29.84,9,4,16,0.00
2014-4-29,47.0,36.3,26.9,12.3,9.1,6.8,46,33,22,30.28,30.15,6,3,19,0.00
2014-4-30,52.8,36.5,22.1,20.2,9.8,-99.9,58,38,17,30.36,30.13,10,2,14,0.00
2014-5-1,58.4,42.7,26.1,18.8,7.5,-99.9,56,32,14,30.31,30.08,9,3,13,0.00
2014-5-2,66.8,51.1,30.6,22.5,14.1,-99.9,48,26,14,30.18,29.86,10,3,11,0.00
2014-5-3,72.7,55.7,40.1,27.1,15.6,-99.9,47,25,10,30.03,29.83,8,2,12,0.00
2014-5-4,66.9,55.3,43.9,22.9,14.9,10.7,35,21,12,29.98,29.82,11,3,17,0.00
2014-5-5,68.3,55.2,41.5,21.2,12.6,7.3,32,19,10,29.97,29.66,10,3,17,0.00
2014-5-6,61.2,53.5,42.9,19.6,13.1,7.0,36,21,13,29.75,29.52,12,4,18,0.00
2014-5-7,49.2,42.5,32.2,25.5,15.6,7.5,62,35,21,29.86,29.57,13,5,16,0.00
2014-5-8,49.8,38.9,32.8,31.7,25.9,21.6,78,60,39,30.17,29.84,8,2,14,0.08
2014-5-9,57.3,45.6,32.5,23.8,20.2,15.8,65,39,20,30.16,29.80,11,3,14,0.00
2014-5-10,62.4,52.5,39.1,25.9,21.4,16.5,45,31,19,29.88,29.44,14,5,19,0.00
2014-5-11,55.0,42.5,32.4,35.1,26.6,15.2,81,57,29,29.89,29.40,15,6,30,0.21
2014-5-12,41.1,34.3,29.1,29.1,24.6,20.8,83,68,49,30.30,29.89,7,2,14,0.03
2014-5-13,48.9,35.9,27.5,31.2,17.4,-99.9,72,54,19,30.55,30.26,6,2,12,0.02
2014-5-14,57.3,41.4,24.5,18.0,14.6,10.6,62,37,17,30.64,30.28,9,3,17,0.00
2014-5-15,67.8,50.2,32.4,26.1,19.3,14.7,53,32,17,30.33,30.06,11,3,11,0.00
2014-5-16,72.8,57.1,39.1,26.8,21.5,15.9,48,27,13,30.11,29.76,12,3,20,0.00
2014-5-17,73.9,59.8,45.5,33.0,22.2,10.8,46,26,9,29.88,29.65,14,3,18,0.00
2014-5-18,72.7,60.5,44.1,25.8,18.4,1.6,38,21,6,29.77,29.59,15,4,24,0.00
2014-5-19,71.3,58.5,38.9,21.6,10.2,0.3,33,16,6,29.80,29.64,13,5,25,0.00
2014-5-20,69.9,57.6,39.9,18.5,12.2,6.4,32,18,9,29.89,29.74,14,5,17,0.00
2014-5-21,66.6,59.2,50.2,25.1,19.2,12.8,28,21,17,29.85,29.76,11,2,22,0.00
2014-5-22,68.8,58.5,47.9,38.7,26.0,21.4,70,30,19,29.95,29.80,9,3,19,0.00
2014-5-23,62.7,51.0,42.2,40.0,36.3,31.9,78,60,32,30.01,29.89,8,2,12,0.00
2014-5-24,62.3,52.4,40.9,36.8,32.8,25.3,77,49,28,30.04,29.85,13,4,19,0.09
2014-5-25,51.1,43.9,38.8,40.8,36.5,33.2,87,75,61,30.08,29.90,7,2,10,0.01
2014-5-26,69.6,54.2,36.2,39.1,34.1,27.6,84,51,23,30.14,29.92,10,3,16,0.00
2014-5-27,78.6,62.4,43.3,37.9,30.6,25.0,57,33,15,30.05,29.84,10,3,14,0.00
2014-5-28,82.8,67.9,49.9,33.8,28.4,20.6,44,25,11,29.92,29.65,8,2,16,0.00
2014-5-29,76.0,67.0,58.9,38.8,32.4,28.0,43,28,21,29.86,29.69,8,3,13,0.00
2014-5-30,75.1,61.3,49.1,45.2,37.8,29.3,77,46,20,29.91,29.79,7,2,12,0.02
2014-5-31,76.7,65.3,50.1,36.8,27.0,10.9,51,27,8,29.89,29.63,14,4,21,0.00
2014-6-1,76.1,64.1,48.5,30.7,14.6,-1.4,45,18,5,29.83,29.62,8,3,17,0.00
2014-6-2,80.5,64.6,44.2,25.9,12.8,-6.2,30,16,4,29.90,29.70,9,3,19,0.00
2014-6-3,76.8,65.3,52.8,37.3,18.5,1.8,42,18,6,29.81,29.68,12,3,13,0.00
2014-6-4,79.0,63.1,43.5,24.0,6.4,-99.9,32,14,1,29.83,29.67,10,3,12,0.00
2014-6-5,79.9,63.7,43.1,23.8,7.7,-99.9,28,13,4,29.81,29.62,9,3,16,0.00
2014-6-6,81.2,65.0,45.8,25.1,1.8,-99.9,30,13,3,29.75,29.58,6,3,10,0.00
2014-6-7,80.3,65.9,46.4,31.8,15.8,-99.9,39,19,1,29.74,29.50,14,3,18,0.00
2014-6-8,70.9,62.5,53.3,35.1,27.5,16.1,41,27,13,29.86,29.56,15,5,15,0.00
2014-6-9,75.4,59.2,36.0,27.5,18.4,-1.8,48,23,5,30.06,29.76,12,4,22,0.00
2014-6-10,81.6,65.2,46.5,33.4,17.5,-99.9,41,20,6,29.87,29.64,7,2,18,0.00
2014-6-11,77.7,66.2,53.8,37.3,23.0,0.6,44,23,5,29.76,29.57,12,4,14,0.00
2014-6-12,81.2,66.2,47.0,34.4,26.6,18.4,44,24,11,29.82,29.67,6,2,10,0.00
2014-6-13,77.9,66.5,50.4,34.1,27.0,20.2,44,24,16,29.82,29.50,17,6,19,0.00
2014-6-14,69.8,61.2,46.0,27.4,15.5,8.3,39,18,9,29.78,29.50,15,5,26,0.00
2014-6-15,73.0,61.4,39.2,19.9,5.9,-99.9,34,15,3,29.83,29.59,15,6,19,0.00
2014-6-16,71.5,59.3,40.8,14.5,8.3,-3.9,30,15,5,29.82,29.63,14,6,28,0.00
2014-6-17,72.8,62.3,45.4,28.7,21.5,11.2,41,22,14,29.83,29.63,19,8,21,0.00
2014-6-18,61.5,55.6,49.2,25.8,24.7,23.6,39,30,25,29.72,29.67,4,1,17,0.00
2014-6-19,73.7,60.0,41.3,28.4,17.7,4.1,46,22,8,30.00,29.87,7,3,8,0.00
2014-6-20,80.7,63.0,40.8,26.0,15.9,5.7,34,18,6,30.04,29.75,6,2,12,0.00
2014-6-21,77.0,65.2,49.5,34.2,22.4,16.3,39,21,11,29.85,29.69,11,3,16,0.00
2014-6-22,81.1,66.6,51.4,37.3,23.8,14.2,40,22,9,29.79,29.66,7,3,14,0.00
2014-6-23,81.6,66.8,49.5,34.5,20.2,10.4,43,19,7,29.84,29.67,10,2,13,0.00
2014-6-24,81.1,67.1,47.9,29.8,17.2,10.0,35,16,7,29.88,29.68,12,4,12,0.00
2014-6-25,82.2,66.6,48.2,29.9,20.7,11.8,38,19,8,29.83,29.65,11,3,14,0.00
2014-6-26,78.1,66.6,48.2,30.8,20.1,14.8,36,18,11,29.79,29.53,11,4,19,0.00
2014-6-27,72.8,64.5,52.9,33.2,28.8,20.8,42,27,17,29.67,29.52,9,3,24,0.00
2014-6-28,78.3,66.5,55.4,32.3,27.3,19.6,41,24,14,29.83,29.59,9,4,19,0.00
2014-6-29,84.9,69.5,50.4,37.5,28.0,23.3,39,23,13,29.85,29.65,10,3,16,0.00
2014-6-30,88.8,73.6,57.0,37.2,29.2,23.3,40,21,11,29.75,29.56,8,3,19,0.00
2014-7-1,85.5,71.2,51.1,34.1,24.4,16.7,39,18,8,29.75,29.59,11,4,20,0.00
2014-7-2,86.3,70.1,53.6,45.7,36.8,18.6,51,31,16,29.88,29.66,8,3,14,0.04
2014-7-3,84.7,72.1,62.6,42.8,37.3,31.9,44,29,15,29.95,29.73,9,3,12,0.00
2014-7-4,81.1,68.1,51.1,47.3,40.1,36.2,63,38,22,30.01,29.80,8,2,10,0.03
2014-7-5,81.2,65.4,53.5,48.3,44.5,38.5,72,49,22,30.12,29.90,10,3,17,0.00
2014-7-6,81.1,67.8,49.9,45.6,39.6,34.8,63,38,22,30.07,29.77,7,2,10,0.00
2014-7-7,82.8,71.7,58.6,42.5,38.4,34.7,48,31,20,29.85,29.67,8,3,10,0.00
2014-7-8,85.5,69.6,54.4,47.2,39.7,34.2,55,36,16,29.93,29.72,8,4,16,0.01
2014-7-9,79.4,64.7,52.6,50.9,43.9,39.2,69,49,27,30.02,29.77,7,3,12,0.10
2014-7-13,84.3,69.7,60.7,54.8,47.5,42.0,63,46,29,30.03,29.78,5,2,0,0.00
2014-7-14,80.7,67.6,56.9,52.0,47.3,44.2,65,50,31,30.02,29.85,5,1,0,0.00
2014-7-15,79.4,69.2,59.3,50.0,44.9,41.5,70,43,27,30.06,29.73,5,2,0,0.00
2014-7-16,79.4,68.5,55.6,47.5,43.9,38.4,68,43,23,29.82,29.63,7,2,0,0.00
2014-7-17,82.8,66.8,50.8,46.5,39.0,31.7,74,41,17,29.79,29.68,7,3,0,0.00
2014-7-18,86.3,69.2,52.0,38.7,33.3,29.1,47,29,14,29.84,29.72,7,3,0,0.00
2014-7-19,86.5,68.1,56.5,40.6,35.1,30.5,45,31,14,29.82,29.70,7,2,22,0.00
2014-7-20,84.3,72.8,58.3,41.9,36.5,29.0,46,28,14,29.85,29.70,7,2,11,0.00
2014-7-21,84.3,70.7,55.4,42.2,33.1,28.3,47,27,16,29.93,29.82,6,2,10,0.00
2014-7-22,91.4,76.5,59.3,38.7,27.1,21.6,28,18,8,29.98,29.76,8,3,17,0.00
2014-7-23,87.8,77.0,61.3,47.0,38.3,28.9,43,27,12,29.96,29.76,10,4,14,0.00
2014-7-24,81.2,69.4,63.7,59.4,49.5,43.4,75,51,27,29.89,29.80,7,3,12,0.10
2014-7-25,85.5,72.0,61.6,51.4,44.6,37.4,67,40,19,29.93,29.71,9,2,12,0.00
2014-7-26,85.1,73.8,58.7,43.0,39.8,36.2,51,31,18,29.89,29.72,8,3,11,0.00
2014-7-27,87.2,71.0,59.6,52.6,44.5,39.3,77,41,19,30.07,29.74,9,3,10,0.17
2014-7-28,76.0,66.9,58.3,53.0,48.3,43.3,79,53,35,30.11,29.95,11,3,16,0.01
2014-7-29,77.0,63.7,54.4,55.1,48.3,39.9,86,61,34,30.09,29.87,6,2,0,0.05
2014-7-30,78.5,66.1,58.9,46.5,43.1,41.3,59,44,27,29.91,29.77,8,1,19,0.00
2014-7-31,78.5,65.9,52.9,52.0,45.5,41.2,65,49,28,29.94,29.75,8,2,10,0.00
2014-8-1,75.4,65.4,55.6,48.3,46.0,40.9,73,51,32,29.98,29.83,9,2,10,0.00
2014-8-2,73.3,64.5,58.6,54.7,46.7,42.9,74,53,35,30.00,29.85,7,3,8,0.04
2014-8-3,75.6,66.1,58.7,50.5,45.0,37.3,65,48,27,30.05,29.83,13,3,13,0.00
2014-8-4,75.3,66.0,60.7,49.7,47.2,43.9,64,52,34,29.96,29.81,9,2,9,0.00
2014-8-5,75.8,65.1,53.8,50.4,42.6,35.2,80,47,24,30.01,29.86,9,2,9,0.13
2014-8-6,81.1,67.8,53.3,41.9,37.3,32.3,58,35,19,29.97,29.77,8,2,10,0.00
2014-8-7,79.6,67.8,54.8,37.1,31.4,18.9,48,28,13,29.86,29.73,10,3,14,0.00
2014-8-8,80.5,65.8,48.9,39.9,30.1,14.9,59,30,9,29.94,29.78,8,2,10,0.00
2014-8-9,83.4,67.3,51.4,34.6,26.6,19.5,38,23,12,29.96,29.80,7,2,13,0.00
2014-8-10,83.8,68.7,53.5,36.8,32.1,25.0,40,27,14,29.98,29.82,7,2,10,0.00
2014-8-11,75.6,66.5,57.8,59.9,41.6,37.1,73,41,29,30.06,29.91,8,2,12,0.27
2014-8-12,80.7,65.8,58.3,55.5,43.8,38.5,73,47,30,30.15,29.83,12,3,12,0.10
2014-8-13,71.5,63.4,56.2,51.1,46.5,40.5,81,56,39,30.02,29.84,9,3,12,0.32
2014-8-14,72.3,61.4,55.9,54.9,51.0,45.7,89,70,48,30.03,29.84,8,3,13,0.37
2014-8-15,78.6,65.7,52.0,50.6,46.4,41.5,76,52,31,29.98,29.80,8,2,14,0.00
2014-8-16,80.5,66.0,49.1,46.6,41.7,37.7,72,45,25,30.00,29.85,7,1,10,0.00
2014-8-17,83.6,69.3,52.2,43.9,37.2,28.8,66,35,15,29.98,29.76,7,2,7,0.00
2014-8-18,85.1,72.8,62.9,41.9,36.6,28.6,40,28,14,29.87,29.61,7,2,11,0.00
2014-8-19,76.5,63.0,53.2,51.2,45.5,39.1,85,57,29,29.81,29.65,10,2,16,0.07
2014-8-20,73.7,61.7,50.4,50.6,42.3,33.8,89,54,27,29.92,29.70,9,2,10,0.01
2014-8-21,74.7,64.3,51.9,41.2,34.7,31.2,49,35,23,29.93,29.83,7,2,16,0.00
2014-8-22,64.7,54.0,49.4,47.7,42.8,39.1,87,67,45,30.08,29.86,10,2,12,0.76
2014-8-23,68.9,58.1,47.6,48.1,44.2,40.2,82,61,37,30.04,29.81,8,1,10,0.00
2014-8-24,74.9,60.6,46.2,46.8,41.5,37.5,82,54,26,29.95,29.82,4,1,10,0.00
2014-8-25,73.0,61.5,49.6,45.9,40.3,35.6,74,49,27,29.98,29.84,8,2,12,0.00
2014-8-26,74.6,60.3,50.8,48.0,42.3,37.1,85,54,29,30.07,29.88,7,2,10,0.17
2014-8-27,65.5,51.1,42.2,48.5,41.8,33.3,92,73,37,30.26,29.97,8,1,8,0.09
2014-8-28,71.8,58.1,41.9,43.6,39.0,32.5,89,53,29,30.18,29.90,6,2,10,0.00
2014-8-29,76.0,59.9,41.3,40.0,34.9,28.6,68,42,27,30.07,29.85,9,2,13,0.00
2014-8-30,77.4,63.0,47.1,41.0,36.5,32.4,65,40,24,29.99,29.76,8,2,13,0.00
2014-8-31,78.1,63.6,47.4,37.3,33.6,30.7,61,35,18,29.90,29.70,11,3,21,0.00
2014-9-1,79.0,63.0,45.5,38.0,30.7,25.7,56,32,16,29.90,29.75,8,2,16,0.00
2014-9-2,84.3,65.5,48.6,38.3,31.7,28.1,51,30,17,29.97,29.71,5,2,7,0.00
2014-9-3,79.9,70.1,50.4,37.7,30.5,25.4,52,25,14,29.87,29.65,13,4,24,0.00
2014-9-4,67.9,56.6,46.2,46.6,35.9,24.6,85,49,26,30.01,29.69,6,1,8,0.08
2014-9-5,74.9,59.3,44.2,46.1,41.0,37.3,88,55,29,30.11,29.91,7,2,10,0.00
2014-9-6,76.3,62.3,47.7,45.7,38.3,32.7,61,43,24,30.08,29.90,12,3,16,0.00
2014-9-7,76.1,64.4,54.8,44.9,41.2,32.1,58,44,26,30.06,29.81,7,2,12,0.01
2014-9-8,70.9,62.9,54.7,49.7,43.3,39.5,75,50,37,29.91,29.78,5,1,17,0.00
2014-9-9,61.8,55.1,46.8,52.2,48.3,40.6,86,78,61,29.95,29.76,8,2,11,0.43
2014-9-10,68.4,54.9,41.9,47.0,38.7,29.3,90,60,24,30.06,29.87,7,2,14,0.01
2014-9-11,71.3,56.2,40.1,34.6,31.8,27.8,67,42,22,30.12,29.87,7,2,10,0.00
2014-9-12,73.3,57.9,43.3,34.3,30.5,21.9,67,39,16,30.12,29.90,8,2,12,0.00
2014-9-13,74.7,58.2,43.6,39.9,32.0,24.0,69,39,23,30.13,29.87,9,2,11,0.00
2014-9-14,76.1,61.3,46.0,40.1,33.8,25.9,52,37,23,30.12,29.80,6,1,8,0.00
2014-9-15,78.1,64.1,47.7,41.6,34.4,28.0,57,35,16,30.12,29.83,8,1,17,0.00
2014-9-16,76.3,61.4,48.2,45.8,40.5,35.8,65,48,25,30.14,29.85,7,1,12,0.04
2014-9-17,70.9,56.1,47.4,47.8,43.5,31.9,83,64,40,30.03,29.84,5,2,14,0.34
2014-9-18,78.6,60.4,43.5,46.7,37.3,30.0,81,47,22,30.02,29.72,7,2,12,0.00
2014-9-19,77.6,63.5,47.3,45.2,40.1,33.3,67,44,30,29.95,29.68,7,2,10,0.00
2014-9-20,81.6,66.2,49.1,45.6,38.9,33.9,75,41,19,29.94,29.77,8,2,13,0.01
2014-9-21,74.0,63.1,53.3,49.3,45.5,40.6,83,55,30,30.01,29.83,6,2,12,0.31
2014-9-22,72.0,58.9,46.4,52.8,46.0,38.2,86,65,35,30.08,29.90,5,1,12,0.52
2014-9-23,71.8,57.7,43.9,41.7,37.3,34.1,78,50,27,30.17,29.96,6,2,13,0.00
2014-9-24,77.7,60.4,44.5,42.2,37.2,31.2,69,45,23,30.18,29.93,7,2,10,0.00
2014-9-25,80.5,65.0,51.3,44.4,38.8,34.6,64,40,21,30.10,29.80,6,2,11,0.00
2014-9-26,76.5,62.8,47.6,45.9,40.0,32.5,82,46,26,30.00,29.72,5,2,16,0.00
2014-9-27,75.6,60.3,49.1,48.3,42.3,35.9,78,54,28,29.88,29.58,12,2,12,0.08
2014-9-28,57.8,50.1,45.2,47.4,42.9,34.8,88,77,57,29.99,29.73,11,2,24,1.02
2014-9-29,53.9,46.7,40.3,42.1,37.5,31.6,85,71,45,30.00,29.86,6,1,10,0.30
2014-9-30,57.5,44.7,32.7,35.5,31.9,28.3,86,63,37,30.09,29.88,6,2,7,0.00
2014-10-1,56.6,47.1,36.3,37.1,30.1,21.5,73,52,40,29.95,29.84,7,2,10,0.00
2014-10-2,56.2,45.1,29.1,27.2,21.0,12.4,72,41,23,30.34,29.94,10,3,16,0.00
2014-10-3,62.6,50.4,35.9,32.7,23.4,13.1,62,36,24,30.34,30.11,9,2,17,0.00
2014-10-4,65.3,50.5,32.7,31.2,27.3,23.8,72,44,24,30.29,29.93,13,3,13,0.00
2014-10-5,72.7,53.2,35.3,33.8,24.2,15.4,53,34,17,30.09,29.84,11,3,17,0.00
2014-10-6,68.4,55.2,35.9,33.6,23.9,15.2,53,31,18,30.05,29.88,8,3,13,0.00
2014-10-7,66.8,56.2,43.5,31.1,24.8,15.9,57,30,23,30.05,29.87,8,2,8,0.00
2014-10-8,67.1,55.0,42.2,34.5,29.7,25.3,59,40,23,30.04,29.82,9,2,18,0.00
2014-10-9,53.3,48.0,44.8,44.6,40.3,34.0,85,75,52,29.97,29.80,4,1,10,0.34
2014-10-10,55.0,48.8,40.8,44.7,41.5,35.2,88,76,64,30.14,29.94,4,1,5,0.07
2014-10-11,62.9,48.9,37.3,42.5,36.0,29.7,87,64,30,30.23,29.90,8,2,13,0.01
2014-10-12,54.4,44.4,38.2,33.9,26.1,17.0,71,51,24,30.09,29.71,9,3,22,0.00
2014-10-13,57.5,41.3,24.1,23.3,17.7,10.2,65,40,25,30.38,30.01,10,3,19,0.00
2014-10-14,65.3,45.4,29.5,29.6,22.9,13.1,65,44,23,30.37,30.11,5,2,7,0.00
2014-10-15,69.4,54.0,41.1,30.2,24.0,19.0,48,33,18,30.18,29.97,6,2,12,0.00
2014-10-16,68.4,52.4,40.1,33.6,24.5,15.6,62,37,13,30.18,29.91,6,2,10,0.00
2014-10-17,64.3,51.6,37.3,30.5,24.9,19.9,55,37,19,30.15,29.91,7,1,12,0.00
2014-10-18,60.2,52.1,40.6,35.1,30.3,25.6,62,44,30,30.09,29.92,5,1,8,0.00
2014-10-19,67.3,52.0,41.3,42.2,36.1,30.8,81,56,34,30.16,29.83,8,3,8,0.30
2014-10-20,65.6,50.9,38.2,39.4,35.4,31.6,81,58,32,30.18,29.94,6,1,8,0.00
2014-10-21,59.2,50.6,42.1,39.1,37.0,34.9,78,60,46,30.04,29.83,6,2,6,0.00
2014-10-22,62.0,48.5,37.3,40.2,33.6,29.2,83,60,33,30.21,29.97,9,2,11,0.00
2014-10-23,65.3,49.5,36.6,34.8,30.0,27.1,74,50,24,30.31,30.07,9,2,10,0.00
2014-10-24,68.4,52.2,39.1,32.0,26.4,23.3,63,40,19,30.36,30.12,6,2,10,0.00
2014-10-25,68.6,52.8,38.8,32.1,27.1,21.1,58,40,20,30.31,29.99,7,2,11,0.00
2014-10-26,62.6,51.2,42.1,38.4,31.9,27.1,73,49,31,30.11,29.76,11,2,13,0.00
2014-10-27,54.4,46.3,34.7,29.2,21.8,13.0,60,39,23,30.10,29.73,9,2,11,0.00
2014-10-28,58.4,45.1,30.6,15.1,8.9,0.3,38,23,15,30.32,30.02,9,2,12,0.00
2014-10-29,60.7,45.2,30.3,17.0,11.1,5.7,45,26,16,30.39,30.14,10,2,19,0.00
2014-10-30,66.9,48.9,32.7,27.9,17.8,6.5,46,31,17,30.39,30.08,6,2,12,0.00
2014-10-31,60.5,54.1,49.6,32.0,21.8,15.5,48,29,23,30.28,29.95,9,4,12,0.00
2014-11-1,58.9,50.6,42.9,40.6,35.5,28.3,68,56,42,30.00,29.74,9,4,17,0.02
2014-11-2,48.6,45.5,39.9,33.1,29.9,28.4,75,55,46,29.87,29.78,6,1,6,0.08
2014-11-3,44.5,34.2,24.8,23.6,21.5,11.3,77,61,36,30.35,29.97,7,2,12,0.00
2014-11-4,26.9,24.5,23.3,18.4,16.5,15.3,75,71,70,30.29,30.25,2,1,6,0.00
2014-11-5,59.5,41.2,24.5,21.5,17.2,10.5,59,41,15,30.55,30.28,6,2,12,0.00
2014-11-6,61.0,42.4,29.1,21.2,17.1,10.2,57,38,19,30.63,30.31,6,2,8,0.00
2014-11-7,59.0,44.5,30.3,22.3,15.6,7.4,50,32,20,30.41,30.11,9,2,14,0.00
2014-11-8,60.7,43.3,30.0,20.0,16.7,12.3,56,37,16,30.46,30.16,7,1,8,0.00
2014-11-9,58.3,42.8,29.5,20.3,17.5,13.6,55,38,20,30.34,29.80,6,2,7,0.00
2014-11-10,56.5,42.6,31.6,21.9,16.8,4.3,59,37,20,29.91,29.63,12,3,19,0.00
2014-11-11,53.8,39.8,26.3,20.7,14.9,0.5,56,37,24,30.07,29.77,5,2,10,0.00
2014-11-12,48.3,40.9,31.9,28.1,24.8,19.8,66,53,38,30.06,29.78,5,1,12,0.00
2014-11-13,43.3,38.4,33.8,31.0,23.7,15.1,80,56,38,30.16,29.95,5,1,5,0.01
2014-11-14,40.9,35.6,31.9,32.5,28.6,25.0,84,76,59,30.08,29.93,5,1,7,0.27
2014-11-15,40.6,35.5,31.0,29.5,26.4,22.7,83,70,52,30.07,29.88,5,2,10,0.21
2014-11-16,33.4,23.6,16.9,24.3,7.1,-0.6,80,50,30,30.52,29.86,8,3,14,0.11
2014-11-17,39.3,22.7,10.5,8.2,1.9,-4.4,72,44,16,30.65,30.38,7,2,12,0.00
2014-11-18,38.5,25.7,11.7,11.9,6.2,-1.2,63,45,23,30.67,30.38,8,2,12,0.00
2014-11-19,44.9,33.3,22.4,13.1,5.9,-1.2,49,33,19,30.51,30.18,5,1,7,0.00
2014-11-20,45.7,34.9,25.7,16.9,8.9,1.6,49,35,18,30.31,30.08,5,1,5,0.00
2014-11-21,47.6,35.7,25.6,19.0,15.9,13.1,61,46,27,30.21,30.03,5,1,7,0.00
2014-11-22,48.2,36.3,25.4,26.3,17.6,14.2,80,49,29,30.25,29.81,5,1,8,0.01
2014-11-23,36.9,29.1,21.4,25.5,14.7,4.8,73,55,33,30.29,29.73,9,3,17,0.00
2014-11-24,31.9,24.4,20.3,15.4,6.5,-1.1,66,46,32,30.59,30.26,10,2,13,0.00
2014-11-25,41.3,33.2,22.9,19.4,3.9,-8.1,48,30,19,30.59,30.32,8,3,17,0.00
2014-11-26,54.2,41.6,28.8,25.0,19.5,13.3,58,40,27,30.46,30.10,9,4,20,0.00
2014-11-27,57.6,41.0,27.0,19.5,14.7,8.2,62,37,16,30.57,30.28,8,1,8,0.00
2014-11-28,58.6,42.3,30.9,13.7,10.4,7.3,42,28,15,30.35,29.98,6,1,10,0.00
2014-11-29,53.5,40.1,29.1,14.4,7.9,3.6,46,27,13,30.13,29.90,9,2,12,0.01
2014-11-30,50.1,39.2,30.4,16.1,12.1,6.5,45,33,21,30.24,29.92,5,1,5,0.00
2014-12-1,49.8,35.8,23.8,18.7,15.0,8.1,60,43,27,30.50,30.09,5,1,7,0.00
2014-12-2,46.4,37.0,26.6,18.1,13.8,10.0,56,39,26,30.39,30.12,4,1,5,0.00
2014-12-3,44.2,39.4,34.7,34.0,29.5,22.6,78,68,49,30.24,30.07,4,1,5,0.02
2014-12-4,41.8,39.3,37.6,35.1,33.1,31.0,83,78,69,30.15,30.00,3,0,7,0.17
2014-12-5,45.5,39.5,35.6,34.8,31.7,27.4,83,74,59,30.39,30.10,6,2,7,0.00
2014-12-6,45.2,41.1,33.8,30.2,27.7,23.4,73,59,47,30.40,30.27,7,2,14,0.00
2014-12-7,48.6,36.8,28.7,31.3,26.3,21.1,81,67,45,30.53,30.31,8,2,10,0.00
2014-12-8,53.9,39.6,29.1,27.2,21.8,15.6,78,52,26,30.54,30.22,5,1,7,0.00
2014-12-9,53.1,39.5,27.8,24.2,16.4,3.6,65,41,20,30.41,30.16,5,2,8,0.00
2014-12-10,51.7,36.3,27.0,19.6,16.0,12.0,62,46,23,30.43,30.17,8,2,10,0.00
2014-12-11,52.2,38.4,28.4,27.9,20.0,12.5,61,49,29,30.38,30.14,7,2,7,0.00
2014-12-12,52.8,43.6,34.6,30.8,26.8,20.0,66,52,34,30.30,29.99,7,2,17,0.00
2014-12-13,45.2,36.9,29.0,32.7,26.3,22.8,83,67,41,30.00,29.83,9,2,12,0.33
2014-12-14,32.4,26.5,20.8,23.1,18.1,10.5,83,71,59,30.26,29.89,5,2,10,0.06
2014-12-15,36.5,26.2,19.2,17.7,11.2,6.1,79,52,37,30.45,30.15,7,2,7,0.00
2014-12-16,41.9,32.7,21.9,18.0,13.0,6.0,69,40,26,30.38,30.05,8,2,8,0.00
2014-12-17,38.0,33.5,28.7,27.1,22.0,17.1,78,63,44,30.16,29.93,7,1,11,0.10
2014-12-18,32.1,27.9,16.2,24.4,19.9,7.2,78,70,67,30.41,30.14,4,0,4,0.00
2014-12-19,34.6,22.4,11.1,19.7,9.0,-1.1,84,55,43,30.54,30.35,6,2,13,0.00
2014-12-20,36.2,28.3,18.9,22.1,14.5,6.5,64,56,48,30.41,30.19,4,1,6,0.00
2014-12-21,37.9,32.8,28.4,25.7,22.2,17.0,69,65,54,30.18,30.00,4,1,12,0.01
2014-12-22,37.3,30.7,23.9,29.2,22.4,9.9,86,67,48,30.05,29.74,7,3,14,0.28
2014-12-23,29.7,19.8,9.9,10.8,2.1,-4.6,61,38,27,30.50,29.91,12,2,14,0.00
2014-12-24,35.3,15.8,6.7,11.7,-0.3,-10.6,53,33,28,30.54,29.89,4,1,7,0.00
2014-12-25,31.8,20.2,12.9,19.7,11.0,3.9,76,47,37,29.94,29.25,7,1,10,0.04
2014-12-26,24.7,18.7,7.7,13.9,7.7,-4.4,76,62,50,30.39,29.86,6,1,10,0.02
2014-12-27,26.7,11.9,0.7,6.1,-3.2,-13.6,71,51,39,30.77,30.34,6,2,8,0.00
2014-12-28,28.4,15.9,5.8,4.6,0.5,-4.6,67,51,35,30.61,30.31,6,1,8,0.00
2014-12-29,27.5,16.8,6.7,10.4,2.6,-7.2,60,53,43,30.40,30.18,4,1,10,0.00
2014-12-30,30.6,22.4,8.1,8.0,2.0,-5.9,52,41,33,30.37,30.08,8,4,16,0.00
2014-12-31,34.3,27.3,20.8,13.6,8.1,4.4,50,44,36,30.29,29.98,8,4,16,0.00
2015-1-1,29.7,19.1,6.1,19.5,10.7,-2.6,78,69,53,30.40,29.85,9,2,24,0.10
2015-1-2,30.0,15.9,4.5,12.1,2.7,-5.7,69,57,39,30.55,30.24,6,2,8,0.00